Left ArrowRight Arrow

39.71368, -82.59933

Hourly Observations for February 20, 2022

Temp ( °F °C ) Dew Point ( °F °C ) Humidity (%) Winds ( mph kmh ) Pressure ( in mb ) Visibility ( mi km ) Precip ( " mm )
12:53 am 00:53 Clear 17 -8.3 13 -10.6 84 84 SSE 5 7 30.41 1030 10 16 0.00 0.00
1:53 am 01:53 Clear 17 -8.3 13 -10.6 84 84 SSE 5 7 30.41 1030 10 16 0.00 0.00
2:53 am 02:53 Clear 17 -8.3 12 -11.1 80 80 SE 5 7 30.39 1029 10 16 0.00 0.00
3:53 am 03:53 Clear 18 -7.8 12 -11.1 77 77 SSE 6 9 30.37 1028 10 16 0.00 0.00
4:53 am 04:53 Clear 20 -6.7 12 -11.1 71 71 S 7 11 30.37 1029 10 16 0.00 0.00
5:53 am 05:53 Clear 21 -6.1 13 -10.6 71 71 S 8 13 30.36 1028 10 16 0.00 0.00
6:53 am 06:53 Clear 22 -5.6 12 -11.1 66 66 S 7 11 30.37 1028 10 16 0.00 0.00
7:53 am 07:53 Sunny 25 -3.9 12 -11.1 58 58 S 12 19 30.36 1028 10 16 0.00 0.00
8:53 am 08:53 Sunny 29 -1.7 12 -11.1 49 49 S 10 17 30.36 1028 10 16 0.00 0.00
9:53 am 09:53 Sunny 34 1.1 11 -11.7 38 38 S 14 22 30.32 1027 10 16 0.00 0.00
10:53 am 10:53 Sunny 40 4.4 14 -10 35 35 SSW 13 20 30.30 1026 10 16 0.00 0.00
11:53 am 11:53 Sunny 44 6.7 12 -11.1 27 27 S 9 15 30.27 1025 10 16 0.00 0.00
12:53 pm 12:53 Sunny 47 8.3 13 -10.6 25 25 SSW 16 26 30.24 1024 10 16 0.00 0.00
1:53 pm 13:53 Sunny 49 9.4 15 -9.4 26 26 S 14 22 30.19 1022 10 16 0.00 0.00
2:53 pm 14:53 Sunny 52 11.1 17 -8.3 25 25 SSW 15 24 30.15 1021 10 16 0.00 0.00
3:53 pm 15:53 Sunny 53 11.7 18 -7.8 25 25 SSW 14 22 30.13 1020 10 16 0.00 0.00
4:53 pm 16:53 Sunny 53 11.7 19 -7.2 26 26 S 12 19 30.10 1019 10 16 0.00 0.00
5:53 pm 17:53 Sunny 50 10 19 -7.2 29 29 S 7 11 30.09 1019 10 16 0.00 0.00
6:53 pm 18:53 Clear 46 7.8 20 -6.7 35 35 S 6 9 30.11 1020 10 16 0.00 0.00
7:53 pm 19:53 Clear 44 6.7 19 -7.2 37 37 S 6 9 30.12 1020 10 16 0.00 0.00
8:53 pm 20:53 Clear 46 7.8 18 -7.8 32 32 S 6 9 30.12 1020 10 16 0.00 0.00
9:53 pm 21:53 Clear 45 7.2 19 -7.2 35 35 S 7 11 30.12 1020 10 16 0.00 0.00
10:53 pm 22:53 Clear 43 6.1 18 -7.8 37 37 S 7 11 30.12 1020 10 16 0.00 0.00
11:53 pm 23:53 Clear 46 7.8 19 -7.2 34 34 SSW 9 15 30.13 1020 10 16 0.00 0.00

Powered by Vaisala Xweather